Year,Month,Day,Hour,Minute,Value (Times are PST for temperature in C)
2006,12,12,00,00,6.40
2006,12,12,00,01,6.40
2006,12,12,00,02,6.40
2006,12,12,00,03,6.40
2006,12,12,00,04,6.30
2006,12,12,00,05,6.30
2006,12,12,00,06,6.30
2006,12,12,00,07,6.20
2006,12,12,00,08,6.20
2006,12,12,00,09,6.20
2006,12,12,00,10,6.20
2006,12,12,00,11,6.20
2006,12,12,00,12,6.10
2006,12,12,00,13,6.00
2006,12,12,00,14,6.00
2006,12,12,00,15,6.00
2006,12,12,00,16,6.00
2006,12,12,00,17,5.90
2006,12,12,00,18,5.90
2006,12,12,00,19,5.90
2006,12,12,00,20,5.90
2006,12,12,00,21,5.80
2006,12,12,00,22,5.80
2006,12,12,00,23,5.80
2006,12,12,00,24,5.80
2006,12,12,00,25,5.80
2006,12,12,00,26,5.70
2006,12,12,00,27,5.70
2006,12,12,00,28,5.70
2006,12,12,00,29,5.70
2006,12,12,00,30,5.60
2006,12,12,00,31,5.60
2006,12,12,00,32,5.50
2006,12,12,00,33,5.50
2006,12,12,00,34,5.50
2006,12,12,00,35,5.40
2006,12,12,00,36,5.30
2006,12,12,00,37,5.30
2006,12,12,00,38,5.20
2006,12,12,00,39,5.10
2006,12,12,00,40,5.10
2006,12,12,00,41,5.10
2006,12,12,00,42,5.10
2006,12,12,00,43,5.10
2006,12,12,00,44,5.00
2006,12,12,00,45,4.90
2006,12,12,00,46,4.90
2006,12,12,00,47,4.90
2006,12,12,00,48,4.90
2006,12,12,00,49,4.90
2006,12,12,00,50,4.90
2006,12,12,00,51,4.90
2006,12,12,00,52,4.80
2006,12,12,00,53,4.80
2006,12,12,00,54,4.80
2006,12,12,00,55,4.80
2006,12,12,00,56,4.70
2006,12,12,00,57,4.70
2006,12,12,00,58,4.70
2006,12,12,00,59,4.70
2006,12,12,01,00,4.60
2006,12,12,01,01,4.60
2006,12,12,01,02,4.60
2006,12,12,01,03,4.60
2006,12,12,01,04,4.60
2006,12,12,01,05,4.50
2006,12,12,01,06,4.50
2006,12,12,01,07,4.50
2006,12,12,01,08,4.50
2006,12,12,01,09,4.40
2006,12,12,01,10,4.40
2006,12,12,01,11,4.40
2006,12,12,01,12,4.40
2006,12,12,01,13,4.40
2006,12,12,01,14,4.40
2006,12,12,01,15,4.40
2006,12,12,01,16,4.40
2006,12,12,01,17,4.40
2006,12,12,01,18,4.30
2006,12,12,01,19,4.30
2006,12,12,01,20,4.30
2006,12,12,01,21,4.30
2006,12,12,01,22,4.30
2006,12,12,01,23,4.30
2006,12,12,01,24,4.30
2006,12,12,01,25,4.30
2006,12,12,01,26,4.30
2006,12,12,01,27,4.30
2006,12,12,01,28,4.20
2006,12,12,01,29,4.20
2006,12,12,01,30,4.20
2006,12,12,01,31,4.20
2006,12,12,01,32,4.20
2006,12,12,01,33,4.20
2006,12,12,01,34,4.20
2006,12,12,01,35,4.20
2006,12,12,01,36,4.20
2006,12,12,01,37,4.20
2006,12,12,01,38,4.20
2006,12,12,01,39,4.20
2006,12,12,01,40,4.20
2006,12,12,01,41,4.20
2006,12,12,01,42,4.10
2006,12,12,01,43,4.10
2006,12,12,01,44,4.10
2006,12,12,01,45,4.10
2006,12,12,01,46,4.10
2006,12,12,01,47,4.10
2006,12,12,01,48,4.10
2006,12,12,01,49,4.10
2006,12,12,01,50,4.10
2006,12,12,01,51,4.10
2006,12,12,01,52,4.10
2006,12,12,01,53,4.10
2006,12,12,01,54,4.10
2006,12,12,01,55,4.10
2006,12,12,01,56,4.10
2006,12,12,01,57,4.10
2006,12,12,01,58,4.10
2006,12,12,01,59,4.10
2006,12,12,02,00,4.10
2006,12,12,02,01,4.10
2006,12,12,02,02,4.20
2006,12,12,02,03,4.20
2006,12,12,02,04,4.20
2006,12,12,02,05,4.20
2006,12,12,02,06,4.20
2006,12,12,02,07,4.20
2006,12,12,02,08,4.20
2006,12,12,02,09,4.20
2006,12,12,02,10,4.30
2006,12,12,02,11,4.30
2006,12,12,02,12,4.40
2006,12,12,02,13,4.40
2006,12,12,02,14,4.40
2006,12,12,02,15,4.50
2006,12,12,02,16,4.50
2006,12,12,02,17,4.60
2006,12,12,02,18,4.60
2006,12,12,02,19,4.60
2006,12,12,02,20,4.60
2006,12,12,02,21,4.60
2006,12,12,02,22,4.60
2006,12,12,02,23,4.60
2006,12,12,02,24,4.60
2006,12,12,02,25,4.70
2006,12,12,02,26,4.70
2006,12,12,02,27,4.70
2006,12,12,02,28,4.70
2006,12,12,02,29,4.70
2006,12,12,02,30,4.70
2006,12,12,02,31,4.70
2006,12,12,02,32,4.70
2006,12,12,02,33,4.80
2006,12,12,02,34,4.80
2006,12,12,02,35,4.90
2006,12,12,02,36,5.00
2006,12,12,02,37,5.10
2006,12,12,02,38,5.10
2006,12,12,02,39,5.20
2006,12,12,02,40,5.30
2006,12,12,02,41,5.30
2006,12,12,02,42,5.40
2006,12,12,02,43,5.50
2006,12,12,02,44,5.50
2006,12,12,02,45,5.50
2006,12,12,02,46,5.60
2006,12,12,02,47,5.60
2006,12,12,02,48,5.60
2006,12,12,02,49,5.60
2006,12,12,02,50,5.70
2006,12,12,02,51,5.70
2006,12,12,02,52,5.70
2006,12,12,02,53,5.70
2006,12,12,02,54,5.70
2006,12,12,02,55,5.70
2006,12,12,02,56,5.70
2006,12,12,02,57,5.80
2006,12,12,02,58,5.80
2006,12,12,02,59,5.80
2006,12,12,03,00,5.80
2006,12,12,03,01,5.80
2006,12,12,03,02,5.80
2006,12,12,03,03,5.80
2006,12,12,03,04,5.80
2006,12,12,03,05,5.80
2006,12,12,03,06,5.80
2006,12,12,03,07,5.80
2006,12,12,03,08,5.80
2006,12,12,03,09,5.90
2006,12,12,03,10,5.90
2006,12,12,03,11,5.90
2006,12,12,03,12,5.90
2006,12,12,03,13,6.00
2006,12,12,03,14,6.00
2006,12,12,03,15,6.00
2006,12,12,03,16,6.00
2006,12,12,03,17,6.00
2006,12,12,03,18,6.00
2006,12,12,03,19,6.00
2006,12,12,03,20,6.00
2006,12,12,03,21,6.00
2006,12,12,03,22,6.00
2006,12,12,03,23,6.00
2006,12,12,03,24,6.10
2006,12,12,03,25,6.10
2006,12,12,03,26,6.20
2006,12,12,03,27,6.20
2006,12,12,03,28,6.20
2006,12,12,03,29,6.30
2006,12,12,03,30,6.30
2006,12,12,03,31,6.30
2006,12,12,03,32,6.40
2006,12,12,03,33,6.40
2006,12,12,03,34,6.40
2006,12,12,03,35,6.40
2006,12,12,03,36,6.50
2006,12,12,03,37,6.60
2006,12,12,03,38,6.60
2006,12,12,03,39,6.60
2006,12,12,03,40,6.60
2006,12,12,03,41,6.60
2006,12,12,03,42,6.60
2006,12,12,03,43,6.70
2006,12,12,03,44,6.70
2006,12,12,03,45,6.80
2006,12,12,03,46,6.80
2006,12,12,03,47,6.80
2006,12,12,03,48,6.80
2006,12,12,03,49,6.80
2006,12,12,03,50,6.80
2006,12,12,03,51,6.80
2006,12,12,03,52,6.90
2006,12,12,03,53,6.90
2006,12,12,03,54,6.90
2006,12,12,03,55,6.90
2006,12,12,03,56,6.90
2006,12,12,03,57,6.90
2006,12,12,03,58,6.90
2006,12,12,03,59,6.90
2006,12,12,04,00,6.80
2006,12,12,04,01,6.80
2006,12,12,04,02,6.80
2006,12,12,04,03,6.80
2006,12,12,04,04,6.70
2006,12,12,04,05,6.70
2006,12,12,04,06,6.60
2006,12,12,04,07,6.60
2006,12,12,04,08,6.60
2006,12,12,04,09,6.60
2006,12,12,04,10,6.40
2006,12,12,04,11,6.40
2006,12,12,04,12,6.40
2006,12,12,04,13,6.40
2006,12,12,04,14,6.30
2006,12,12,04,15,6.30
2006,12,12,04,16,6.30
2006,12,12,04,17,6.30
2006,12,12,04,18,6.30
2006,12,12,04,19,6.30
2006,12,12,04,20,6.30
2006,12,12,04,21,6.30
2006,12,12,04,22,6.30
2006,12,12,04,23,6.30
2006,12,12,04,24,6.30
2006,12,12,04,25,6.20
2006,12,12,04,26,6.20
2006,12,12,04,27,6.20
2006,12,12,04,28,6.20
2006,12,12,04,29,6.20
2006,12,12,04,30,6.20
2006,12,12,04,31,6.20
2006,12,12,04,32,6.10
2006,12,12,04,33,6.10
2006,12,12,04,34,6.10
2006,12,12,04,35,6.10
2006,12,12,04,36,6.10
2006,12,12,04,37,6.20
2006,12,12,04,38,6.20
2006,12,12,04,39,6.20
2006,12,12,04,40,6.20
2006,12,12,04,41,6.20
2006,12,12,04,42,6.20
2006,12,12,04,43,6.30
2006,12,12,04,44,6.30
2006,12,12,04,45,6.30
2006,12,12,04,46,6.30
2006,12,12,04,47,6.30
2006,12,12,04,48,6.30
2006,12,12,04,49,6.30
2006,12,12,04,50,6.30
2006,12,12,04,51,6.30
2006,12,12,04,52,6.30
2006,12,12,04,53,6.30
2006,12,12,04,54,6.40
2006,12,12,04,55,6.40
2006,12,12,04,56,6.40
2006,12,12,04,57,6.40
2006,12,12,04,58,6.50
2006,12,12,04,59,6.60
2006,12,12,05,00,6.60
2006,12,12,05,01,6.60
2006,12,12,05,02,6.60
2006,12,12,05,03,6.60
2006,12,12,05,04,6.60
2006,12,12,05,05,6.60
2006,12,12,05,06,6.60
2006,12,12,05,07,6.60
2006,12,12,05,08,6.60
2006,12,12,05,09,6.60
2006,12,12,05,10,6.60
2006,12,12,05,11,6.70
2006,12,12,05,12,6.70
2006,12,12,05,13,6.80
2006,12,12,05,14,6.80
2006,12,12,05,15,6.80
2006,12,12,05,16,6.80
2006,12,12,05,17,6.80
2006,12,12,05,18,6.90
2006,12,12,05,19,6.90
2006,12,12,05,20,6.90
2006,12,12,05,21,6.90
2006,12,12,05,22,6.90
2006,12,12,05,23,6.90
2006,12,12,05,24,6.90
2006,12,12,05,25,6.90
2006,12,12,05,26,6.90
2006,12,12,05,27,6.90
2006,12,12,05,28,6.90
2006,12,12,05,29,7.00
2006,12,12,05,30,7.00
2006,12,12,05,31,7.00
2006,12,12,05,32,7.00
2006,12,12,05,33,7.00
2006,12,12,05,34,7.00
2006,12,12,05,35,7.00
2006,12,12,05,36,7.00
2006,12,12,05,37,7.00
2006,12,12,05,38,7.10
2006,12,12,05,39,7.10
2006,12,12,05,40,7.10
2006,12,12,05,41,7.10
2006,12,12,05,42,7.10
2006,12,12,05,43,7.20
2006,12,12,05,44,7.20
2006,12,12,05,45,7.20
2006,12,12,05,46,7.30
2006,12,12,05,47,7.30
2006,12,12,05,48,7.30
2006,12,12,05,49,7.30
2006,12,12,05,50,7.30
2006,12,12,05,51,7.30
2006,12,12,05,52,7.30
2006,12,12,05,53,7.30
2006,12,12,05,54,7.20
2006,12,12,05,55,7.10
2006,12,12,05,56,7.00
2006,12,12,05,57,6.90
2006,12,12,05,58,6.80
2006,12,12,05,59,6.80
2006,12,12,06,00,6.70
2006,12,12,06,01,6.60
2006,12,12,06,02,6.60
2006,12,12,06,03,6.60
2006,12,12,06,04,6.50
2006,12,12,06,05,6.40
2006,12,12,06,06,6.40
2006,12,12,06,07,6.40
2006,12,12,06,08,6.40
2006,12,12,06,09,6.30
2006,12,12,06,10,6.30
2006,12,12,06,11,6.30
2006,12,12,06,12,6.30
2006,12,12,06,13,6.30
2006,12,12,06,14,6.30
2006,12,12,06,15,6.30
2006,12,12,06,16,6.30
2006,12,12,06,17,6.30
2006,12,12,06,18,6.30
2006,12,12,06,19,6.30
2006,12,12,06,20,6.30
2006,12,12,06,21,6.30
2006,12,12,06,22,6.30
2006,12,12,06,23,6.30
2006,12,12,06,24,6.30
2006,12,12,06,25,6.30
2006,12,12,06,26,6.30
2006,12,12,06,27,6.30
2006,12,12,06,28,6.30
2006,12,12,06,29,6.30
2006,12,12,06,30,6.30
2006,12,12,06,31,6.30
2006,12,12,06,32,6.30
2006,12,12,06,33,6.30
2006,12,12,06,34,6.30
2006,12,12,06,35,6.40
2006,12,12,06,36,6.40
2006,12,12,06,37,6.40
2006,12,12,06,38,6.40
2006,12,12,06,39,6.40
2006,12,12,06,40,6.40
2006,12,12,06,41,6.40
2006,12,12,06,42,6.40
2006,12,12,06,43,6.40
2006,12,12,06,44,6.40
2006,12,12,06,45,6.40
2006,12,12,06,46,6.40
2006,12,12,06,47,6.50
2006,12,12,06,48,6.60
2006,12,12,06,49,6.60
2006,12,12,06,50,6.60
2006,12,12,06,51,6.60
2006,12,12,06,52,6.60
2006,12,12,06,53,6.60
2006,12,12,06,54,6.60
2006,12,12,06,55,6.60
2006,12,12,06,56,6.70
2006,12,12,06,57,6.70
2006,12,12,06,58,6.70
2006,12,12,06,59,6.70
2006,12,12,07,00,6.70
2006,12,12,07,01,6.70
2006,12,12,07,02,6.70
2006,12,12,07,03,6.70
2006,12,12,07,04,6.80
2006,12,12,07,05,6.80
2006,12,12,07,06,6.80
2006,12,12,07,07,6.90
2006,12,12,07,08,6.90
2006,12,12,07,09,7.00
2006,12,12,07,10,7.00
2006,12,12,07,11,7.00
2006,12,12,07,12,7.00
2006,12,12,07,13,7.10
2006,12,12,07,14,7.10
2006,12,12,07,15,7.10
2006,12,12,07,16,7.20
2006,12,12,07,17,7.20
2006,12,12,07,18,7.20
2006,12,12,07,19,7.20
2006,12,12,07,20,7.20
2006,12,12,07,21,7.30
2006,12,12,07,22,7.30
2006,12,12,07,23,7.30
2006,12,12,07,24,7.30
2006,12,12,07,25,7.30
2006,12,12,07,26,7.30
2006,12,12,07,27,7.20
2006,12,12,07,28,7.20
2006,12,12,07,29,7.20
2006,12,12,07,30,7.20
2006,12,12,07,31,7.20
2006,12,12,07,32,7.20
2006,12,12,07,33,7.20
2006,12,12,07,34,7.20
2006,12,12,07,35,7.10
2006,12,12,07,36,7.10
2006,12,12,07,37,7.10
2006,12,12,07,38,7.10
2006,12,12,07,39,7.10
2006,12,12,07,40,7.10
2006,12,12,07,41,7.10
2006,12,12,07,42,7.10
2006,12,12,07,43,7.10
2006,12,12,07,44,7.10
2006,12,12,07,45,7.10
2006,12,12,07,46,7.00
2006,12,12,07,47,7.00
2006,12,12,07,48,7.00
2006,12,12,07,49,6.90
2006,12,12,07,50,6.90
2006,12,12,07,51,6.80
2006,12,12,07,52,6.80
2006,12,12,07,53,6.80
2006,12,12,07,54,6.70
2006,12,12,07,55,6.60
2006,12,12,07,56,6.60
2006,12,12,07,57,6.60
2006,12,12,07,58,6.50
2006,12,12,07,59,6.40
2006,12,12,08,00,6.40
2006,12,12,08,01,6.40
2006,12,12,08,02,6.40
2006,12,12,08,03,6.40
2006,12,12,08,04,6.40
2006,12,12,08,05,6.40
2006,12,12,08,06,6.40
2006,12,12,08,07,6.40
2006,12,12,08,08,6.20
2006,12,12,08,09,6.20
2006,12,12,08,10,6.10
2006,12,12,08,11,6.10
2006,12,12,08,12,6.10
2006,12,12,08,13,6.00
2006,12,12,08,14,6.00
2006,12,12,08,15,6.00
2006,12,12,08,16,6.00
2006,12,12,08,17,6.00
2006,12,12,08,18,6.00
2006,12,12,08,19,6.00
2006,12,12,08,20,6.00
2006,12,12,08,21,6.00
2006,12,12,08,22,6.00
2006,12,12,08,23,5.90
2006,12,12,08,24,5.90
2006,12,12,08,25,5.90
2006,12,12,08,26,5.90
2006,12,12,08,27,5.90
2006,12,12,08,28,5.90
2006,12,12,08,29,5.80
2006,12,12,08,30,5.80
2006,12,12,08,31,5.80
2006,12,12,08,32,5.80
2006,12,12,08,33,5.80
2006,12,12,08,34,5.90
2006,12,12,08,35,5.90
2006,12,12,08,36,5.90
2006,12,12,08,37,6.00
2006,12,12,08,38,6.00
2006,12,12,08,39,6.10
2006,12,12,08,40,6.20
2006,12,12,08,41,6.20
2006,12,12,08,42,6.30
2006,12,12,08,43,6.40
2006,12,12,08,44,6.40
2006,12,12,08,45,6.40
2006,12,12,08,46,6.60
2006,12,12,08,47,6.60
2006,12,12,08,48,6.70
2006,12,12,08,49,6.70
2006,12,12,08,50,6.80
2006,12,12,08,51,6.80
2006,12,12,08,52,6.90
2006,12,12,08,53,6.90
2006,12,12,08,54,6.90
2006,12,12,08,55,7.00
2006,12,12,08,56,7.00
2006,12,12,08,57,7.00
2006,12,12,08,58,7.00
2006,12,12,08,59,7.00
2006,12,12,09,00,7.00
2006,12,12,09,01,7.00
2006,12,12,09,02,7.00
2006,12,12,09,03,7.00
2006,12,12,09,04,7.10
2006,12,12,09,05,7.10
2006,12,12,09,06,7.10
2006,12,12,09,07,7.10
2006,12,12,09,08,7.10
2006,12,12,09,09,7.10
2006,12,12,09,10,7.20
2006,12,12,09,11,7.20
2006,12,12,09,12,7.20
2006,12,12,09,13,7.20
2006,12,12,09,14,7.10
2006,12,12,09,15,7.00
2006,12,12,09,16,7.00
2006,12,12,09,17,6.90
2006,12,12,09,18,6.70
2006,12,12,09,19,6.60
2006,12,12,09,20,6.40
2006,12,12,09,21,6.40
2006,12,12,09,22,6.30
2006,12,12,09,23,6.20
2006,12,12,09,24,6.20
2006,12,12,09,25,6.20
2006,12,12,09,26,6.10
2006,12,12,09,27,6.00
2006,12,12,09,28,6.00
2006,12,12,09,29,6.00
2006,12,12,09,30,6.00
2006,12,12,09,31,6.00
2006,12,12,09,32,6.00
2006,12,12,09,33,6.00
2006,12,12,09,34,6.00
2006,12,12,09,35,6.00
2006,12,12,09,36,6.00
2006,12,12,09,37,6.00
2006,12,12,09,38,6.00
2006,12,12,09,39,6.00
2006,12,12,09,40,6.00
2006,12,12,09,41,6.00
2006,12,12,09,42,6.00
2006,12,12,09,43,6.00
2006,12,12,09,44,6.10
2006,12,12,09,45,6.20
2006,12,12,09,46,6.20
2006,12,12,09,47,6.20
2006,12,12,09,48,6.30
2006,12,12,09,49,6.30
2006,12,12,09,50,6.40
2006,12,12,09,51,6.40
2006,12,12,09,52,6.40
2006,12,12,09,53,6.40
2006,12,12,09,54,6.40
2006,12,12,09,55,6.40
2006,12,12,09,56,6.40
2006,12,12,09,57,6.40
2006,12,12,09,58,6.40
2006,12,12,09,59,6.40
2006,12,12,10,00,6.40
2006,12,12,10,01,6.40
2006,12,12,10,02,6.40
2006,12,12,10,03,6.40
2006,12,12,10,04,6.40
2006,12,12,10,05,6.40
2006,12,12,10,06,6.40
2006,12,12,10,07,6.40
2006,12,12,10,08,6.40
2006,12,12,10,09,6.40
2006,12,12,10,10,6.40
2006,12,12,10,11,6.40
2006,12,12,10,12,6.40
2006,12,12,10,13,6.40
2006,12,12,10,14,6.40
2006,12,12,10,15,6.40
2006,12,12,10,16,6.40
2006,12,12,10,17,6.40
2006,12,12,10,18,6.50
2006,12,12,10,19,6.60
2006,12,12,10,20,6.60
2006,12,12,10,21,6.70
2006,12,12,10,22,6.80
2006,12,12,10,23,6.90
2006,12,12,10,24,7.00
2006,12,12,10,25,7.20
2006,12,12,10,26,7.20
2006,12,12,10,27,7.30
2006,12,12,10,28,7.40
2006,12,12,10,29,7.50
2006,12,12,10,30,7.50
2006,12,12,10,31,7.60
2006,12,12,10,32,7.70
2006,12,12,10,33,7.70
2006,12,12,10,34,7.70
2006,12,12,10,35,7.80
2006,12,12,10,36,7.80
2006,12,12,10,37,7.80
2006,12,12,10,38,7.80
2006,12,12,10,39,7.90
2006,12,12,10,40,8.00
2006,12,12,10,41,8.00
2006,12,12,10,42,8.10
2006,12,12,10,43,8.20
2006,12,12,10,44,8.20
2006,12,12,10,45,8.20
2006,12,12,10,46,8.20
2006,12,12,10,47,8.10
2006,12,12,10,48,8.10
2006,12,12,10,49,8.10
2006,12,12,10,50,8.10
2006,12,12,10,51,8.10
2006,12,12,10,52,8.10
2006,12,12,10,53,8.20
2006,12,12,10,54,8.20
2006,12,12,10,55,8.20
2006,12,12,10,56,8.20
2006,12,12,10,57,8.20
2006,12,12,10,58,8.20
2006,12,12,10,59,8.20
2006,12,12,11,00,8.20
2006,12,12,11,01,8.20
2006,12,12,11,02,8.10
2006,12,12,11,03,8.10
2006,12,12,11,04,8.00
2006,12,12,11,05,8.00
2006,12,12,11,06,7.90
2006,12,12,11,07,7.80
2006,12,12,11,08,7.80
2006,12,12,11,09,7.80
2006,12,12,11,10,7.80
2006,12,12,11,11,7.80
2006,12,12,11,12,7.80
2006,12,12,11,13,7.80
2006,12,12,11,14,7.80
2006,12,12,11,15,7.80
2006,12,12,11,16,7.80
2006,12,12,11,17,7.80
2006,12,12,11,18,7.80
2006,12,12,11,19,7.80
2006,12,12,11,20,7.80
2006,12,12,11,21,7.80
2006,12,12,11,22,7.80
2006,12,12,11,23,7.80
2006,12,12,11,24,7.80
2006,12,12,11,25,7.80
2006,12,12,11,26,7.90
2006,12,12,11,27,7.90
2006,12,12,11,28,7.90
2006,12,12,11,29,7.90
2006,12,12,11,30,7.80
2006,12,12,11,31,7.80
2006,12,12,11,32,7.80
2006,12,12,11,33,7.80
2006,12,12,11,34,7.80
2006,12,12,11,35,7.80
2006,12,12,11,36,7.80
2006,12,12,11,37,7.80
2006,12,12,11,38,7.80
2006,12,12,11,39,7.80
2006,12,12,11,40,7.80
2006,12,12,11,41,7.80
2006,12,12,11,42,7.80
2006,12,12,11,43,7.80
2006,12,12,11,44,7.80
2006,12,12,11,45,7.80
2006,12,12,11,46,7.80
2006,12,12,11,47,7.80
2006,12,12,11,48,7.80
2006,12,12,11,49,7.80
2006,12,12,11,50,7.80
2006,12,12,11,51,7.80
2006,12,12,11,52,7.80
2006,12,12,11,53,7.80
2006,12,12,11,54,7.80
2006,12,12,11,55,7.80
2006,12,12,11,56,7.80
2006,12,12,11,57,7.80
2006,12,12,11,58,7.80
2006,12,12,11,59,7.80
2006,12,12,12,00,7.80
2006,12,12,12,01,7.80
2006,12,12,12,02,7.80
2006,12,12,12,03,7.80
2006,12,12,12,04,7.80
2006,12,12,12,05,7.80
2006,12,12,12,06,7.80
2006,12,12,12,07,7.80
2006,12,12,12,08,7.80
2006,12,12,12,09,7.90
2006,12,12,12,10,7.90
2006,12,12,12,11,7.90
2006,12,12,12,12,7.90
2006,12,12,12,13,7.90
2006,12,12,12,14,8.00
2006,12,12,12,15,8.00
2006,12,12,12,16,8.00
2006,12,12,12,17,8.10
2006,12,12,12,18,8.00
2006,12,12,12,19,8.00
2006,12,12,12,20,8.00
2006,12,12,12,21,8.00
2006,12,12,12,22,8.00
2006,12,12,12,23,8.00
2006,12,12,12,24,8.00
2006,12,12,12,25,7.90
2006,12,12,12,26,7.90
2006,12,12,12,27,7.90
2006,12,12,12,28,7.80
2006,12,12,12,29,7.80
2006,12,12,12,30,7.80
2006,12,12,12,31,7.80
2006,12,12,12,32,7.80
2006,12,12,12,33,7.80
2006,12,12,12,34,7.80
2006,12,12,12,35,7.80
2006,12,12,12,36,7.80
2006,12,12,12,37,7.80
2006,12,12,12,38,7.80
2006,12,12,12,39,7.70
2006,12,12,12,40,7.80
2006,12,12,12,41,7.80
2006,12,12,12,42,7.80
2006,12,12,12,43,7.80
2006,12,12,12,44,7.80
2006,12,12,12,45,7.80
2006,12,12,12,46,7.80
2006,12,12,12,47,7.80
2006,12,12,12,48,7.80
2006,12,12,12,49,7.80
2006,12,12,12,50,7.80
2006,12,12,12,51,7.80
2006,12,12,12,52,7.80
2006,12,12,12,53,7.80
2006,12,12,12,54,7.80
2006,12,12,12,55,7.80
2006,12,12,12,56,7.80
2006,12,12,12,57,7.80
2006,12,12,12,58,7.80
2006,12,12,12,59,7.80
2006,12,12,13,00,7.80
2006,12,12,13,01,7.80
2006,12,12,13,02,7.90
2006,12,12,13,03,7.90
2006,12,12,13,04,7.90
2006,12,12,13,05,7.90
2006,12,12,13,06,7.90
2006,12,12,13,07,7.90
2006,12,12,13,08,7.90
2006,12,12,13,09,7.90
2006,12,12,13,10,8.00
2006,12,12,13,11,8.00
2006,12,12,13,12,8.00
2006,12,12,13,13,8.00
2006,12,12,13,14,8.10
2006,12,12,13,15,8.10
2006,12,12,13,16,8.10
2006,12,12,13,17,8.10
2006,12,12,13,18,8.10
2006,12,12,13,19,8.20
2006,12,12,13,20,8.20
2006,12,12,13,21,8.20
2006,12,12,13,22,8.20
2006,12,12,13,23,8.20
2006,12,12,13,24,8.10
2006,12,12,13,25,8.10
2006,12,12,13,26,8.00
2006,12,12,13,27,7.90
2006,12,12,13,28,7.90
2006,12,12,13,29,7.90
2006,12,12,13,30,7.90
2006,12,12,13,31,7.90
2006,12,12,13,32,7.90
2006,12,12,13,33,7.90
2006,12,12,13,34,7.90
2006,12,12,13,35,7.90
2006,12,12,13,36,8.00
2006,12,12,13,37,8.00
2006,12,12,13,38,8.00
2006,12,12,13,39,8.00
2006,12,12,13,40,7.90
2006,12,12,13,41,7.90
2006,12,12,13,42,7.90
2006,12,12,13,43,7.90
2006,12,12,13,44,7.90
2006,12,12,13,45,7.90
2006,12,12,13,46,7.90
2006,12,12,13,47,7.90
2006,12,12,13,48,7.90
2006,12,12,13,49,7.90
2006,12,12,13,50,8.00
2006,12,12,13,51,8.00
2006,12,12,13,52,8.00
2006,12,12,13,53,8.10
2006,12,12,13,54,8.10
2006,12,12,13,55,8.10
2006,12,12,13,56,8.10
2006,12,12,13,57,8.10
2006,12,12,13,58,8.10
2006,12,12,13,59,8.10
2006,12,12,14,00,8.10
2006,12,12,14,01,8.10
2006,12,12,14,02,8.10
2006,12,12,14,03,8.10
2006,12,12,14,04,8.20
2006,12,12,14,05,8.20
2006,12,12,14,06,8.20
2006,12,12,14,07,8.20
2006,12,12,14,08,8.20
2006,12,12,14,09,8.20
2006,12,12,14,10,8.20
2006,12,12,14,11,8.20
2006,12,12,14,12,8.10
2006,12,12,14,13,8.10
2006,12,12,14,14,8.00
2006,12,12,14,15,8.00
2006,12,12,14,16,8.00
2006,12,12,14,17,7.90
2006,12,12,14,18,7.90
2006,12,12,14,19,7.90
2006,12,12,14,20,7.90
2006,12,12,14,21,7.90
2006,12,12,14,22,7.80
2006,12,12,14,23,7.80
2006,12,12,14,24,7.80
2006,12,12,14,25,7.80
2006,12,12,14,26,7.70
2006,12,12,14,27,7.70
2006,12,12,14,28,7.70
2006,12,12,14,29,7.70
2006,12,12,14,30,7.70
2006,12,12,14,31,7.60
2006,12,12,14,32,7.60
2006,12,12,14,33,7.60
2006,12,12,14,34,7.60
2006,12,12,14,35,7.60
2006,12,12,14,36,7.60
2006,12,12,14,37,7.50
2006,12,12,14,38,7.50
2006,12,12,14,39,7.50
2006,12,12,14,40,7.50
2006,12,12,14,41,7.50
2006,12,12,14,42,7.50
2006,12,12,14,43,7.50
2006,12,12,14,44,7.50
2006,12,12,14,45,7.40
2006,12,12,14,46,7.40
2006,12,12,14,47,7.40
2006,12,12,14,48,7.40
2006,12,12,14,49,7.40
2006,12,12,14,50,7.40
2006,12,12,14,51,7.40
2006,12,12,14,52,7.40
2006,12,12,14,53,7.40
2006,12,12,14,54,7.40
2006,12,12,14,55,7.40
2006,12,12,14,56,7.40
2006,12,12,14,57,7.40
2006,12,12,14,58,7.40
2006,12,12,14,59,7.30
2006,12,12,15,00,7.40
2006,12,12,15,01,7.30
2006,12,12,15,02,7.30
2006,12,12,15,03,7.30
2006,12,12,15,04,7.40
2006,12,12,15,05,7.40
2006,12,12,15,06,7.40
2006,12,12,15,07,7.40
2006,12,12,15,08,7.40
2006,12,12,15,09,7.40
2006,12,12,15,10,7.40
2006,12,12,15,11,7.40
2006,12,12,15,12,7.40
2006,12,12,15,13,7.40
2006,12,12,15,14,7.40
2006,12,12,15,15,7.40
2006,12,12,15,16,7.40
2006,12,12,15,17,7.40
2006,12,12,15,18,7.40
2006,12,12,15,19,7.40
2006,12,12,15,20,7.40
2006,12,12,15,21,7.40
2006,12,12,15,22,7.40
2006,12,12,15,23,7.40
2006,12,12,15,24,7.30
2006,12,12,15,25,7.30
2006,12,12,15,26,7.30
2006,12,12,15,27,7.30
2006,12,12,15,28,7.30
2006,12,12,15,29,7.30
2006,12,12,15,30,7.30
2006,12,12,15,31,7.30
2006,12,12,15,32,7.30
2006,12,12,15,33,7.30
2006,12,12,15,34,7.30
2006,12,12,15,35,7.30
2006,12,12,15,36,7.30
2006,12,12,15,37,7.30
2006,12,12,15,38,7.30
2006,12,12,15,39,7.30
2006,12,12,15,40,7.30
2006,12,12,15,41,7.30
2006,12,12,15,42,7.30
2006,12,12,15,43,7.30
2006,12,12,15,44,7.30
2006,12,12,15,45,7.30
2006,12,12,15,46,7.30
2006,12,12,15,47,7.30
2006,12,12,15,48,7.30
2006,12,12,15,49,7.30
2006,12,12,15,50,7.30
2006,12,12,15,51,7.30
2006,12,12,15,52,7.30
2006,12,12,15,53,7.30
2006,12,12,15,54,7.30
2006,12,12,15,55,7.30
2006,12,12,15,56,7.30
2006,12,12,15,57,7.30
2006,12,12,15,58,7.30
2006,12,12,15,59,7.30
2006,12,12,16,00,7.30
2006,12,12,16,01,7.30
2006,12,12,16,02,7.30
2006,12,12,16,03,7.30
2006,12,12,16,04,7.30
2006,12,12,16,05,7.30
2006,12,12,16,06,7.30
2006,12,12,16,07,7.30
2006,12,12,16,08,7.30
2006,12,12,16,09,7.30
2006,12,12,16,10,7.30
2006,12,12,16,11,7.30
2006,12,12,16,12,7.30
2006,12,12,16,13,7.30
2006,12,12,16,14,7.30
2006,12,12,16,15,7.20
2006,12,12,16,16,7.20
2006,12,12,16,17,7.20
2006,12,12,16,18,7.20
2006,12,12,16,19,7.20
2006,12,12,16,20,7.20
2006,12,12,16,21,7.20
2006,12,12,16,22,7.20
2006,12,12,16,23,7.20
2006,12,12,16,24,7.20
2006,12,12,16,25,7.20
2006,12,12,16,26,7.20
2006,12,12,16,27,7.20
2006,12,12,16,28,7.20
2006,12,12,16,29,7.30
2006,12,12,16,30,7.30
2006,12,12,16,31,7.30
2006,12,12,16,32,7.30
2006,12,12,16,33,7.30
2006,12,12,16,34,7.20
2006,12,12,16,35,7.20
2006,12,12,16,36,7.20
2006,12,12,16,37,7.30
2006,12,12,16,38,7.30
2006,12,12,16,39,7.30
2006,12,12,16,40,7.30
2006,12,12,16,41,7.30
2006,12,12,16,42,7.30
2006,12,12,16,43,7.30
2006,12,12,16,44,7.30
2006,12,12,16,45,7.30
2006,12,12,16,46,7.30
2006,12,12,16,47,7.30
2006,12,12,16,48,7.30
2006,12,12,16,49,7.40
2006,12,12,16,50,7.40
2006,12,12,16,51,7.40
2006,12,12,16,52,7.50
2006,12,12,16,53,7.50
2006,12,12,16,54,7.50
2006,12,12,16,55,7.50
2006,12,12,16,56,7.50
2006,12,12,16,57,7.50
2006,12,12,16,58,7.50
2006,12,12,16,59,7.50
2006,12,12,17,00,7.50
2006,12,12,17,01,7.50
2006,12,12,17,02,7.50
2006,12,12,17,03,7.50
2006,12,12,17,04,7.50
2006,12,12,17,05,7.50
2006,12,12,17,06,7.60
2006,12,12,17,07,7.60
2006,12,12,17,08,7.60
2006,12,12,17,09,7.60
2006,12,12,17,10,7.60
2006,12,12,17,11,7.60
2006,12,12,17,12,7.60
2006,12,12,17,13,7.60
2006,12,12,17,14,7.60
2006,12,12,17,15,7.60
2006,12,12,17,16,7.60
2006,12,12,17,17,7.60
2006,12,12,17,18,7.60
2006,12,12,17,19,7.60
2006,12,12,17,20,7.60
2006,12,12,17,21,7.60
2006,12,12,17,22,7.60
2006,12,12,17,23,7.60
2006,12,12,17,24,7.60
2006,12,12,17,25,7.60
2006,12,12,17,26,7.60
2006,12,12,17,27,7.60
2006,12,12,17,28,7.60
2006,12,12,17,29,7.60
2006,12,12,17,30,7.60
2006,12,12,17,31,7.60
2006,12,12,17,32,7.60
2006,12,12,17,33,7.60
2006,12,12,17,34,7.60
2006,12,12,17,35,7.60
2006,12,12,17,36,7.60
2006,12,12,17,37,7.60
2006,12,12,17,38,7.60
2006,12,12,17,39,7.60
2006,12,12,17,40,7.60
2006,12,12,17,41,7.60
2006,12,12,17,42,7.60
2006,12,12,17,43,7.60
2006,12,12,17,44,7.70
2006,12,12,17,45,7.70
2006,12,12,17,46,7.70
2006,12,12,17,47,7.70
2006,12,12,17,48,7.70
2006,12,12,17,49,7.70
2006,12,12,17,50,7.70
2006,12,12,17,51,7.70
2006,12,12,17,52,7.70
2006,12,12,17,53,7.70
2006,12,12,17,54,7.80
2006,12,12,17,55,7.80
2006,12,12,17,56,7.80
2006,12,12,17,57,7.80
2006,12,12,17,58,7.80
2006,12,12,17,59,7.80
2006,12,12,18,00,7.80
2006,12,12,18,01,7.80
2006,12,12,18,02,7.80
2006,12,12,18,03,7.80
2006,12,12,18,04,7.80
2006,12,12,18,05,7.80
2006,12,12,18,06,7.80